Showing default

COSMOS 2093, 20738

Orbit data source: Space-Track

COSMOS 2093, 20738 is a payload satellite owned by UNKS (CIS) in LEO that was launched on Wed, 08 Aug 1990 UTC via a TSIKLON-3 launch vehicle from the Plesetsk Missile And Space Complex (PKMTR). Payload-class satellites include a variety of spacecraft equipped with specific instruments for various scientific and technological missions. These include communications satellites like Starlink; space stations such as the ISS; scientific satellites like the Hubble; Earth observation satellites from companies like Planet Labs, Umbra, and HawkEye 360; GPS; miniature CubeSats for education and research; and military/defense satellites.

Loading next visibility...
Identifier
20738, 1990-070D
Orbit
LEO
Last TLE update
12 hours ago
Origin
Manufacturer
NPO PM
Mission
Defense Communications
Bus & Motor
STRELA-3, Unknown motor
Mass
225 kg wet, 225 kg dry
Launch date (UTC)
1990-08-08 (35 years ago)
Launch vehicle
TSIKLON-3
Launch site
Plesetsk Missile And Space Complex (PKMTR)
Object type
Payload
Rocket body
Debris
Shape & HBR
Cyl, 1.6 m
Radar Cross Section
1.257 m², Large (>1 m²)

Expand to show TLE details & history

TLE from 12 hours ago
0 COSMOS 2093
1 20738U 90070D   25186.42266203  .00000039  00000-0  15294-3 0  9999
2 20738  82.5747 163.0052 0008827 166.9712 306.8561 12.64083279610568
Epoch: 2025-07-05T10:08Z
TLE epoch observation values (Epoch: 2025-07-05T10:08:37.999Z)
Latitude
65.2647°
Longitude
-109.16339°
Altitude
1,413.255 km
Speed
7.162 km/s
True Right ascension
21h 46m 37s
True Declination
65° 08' 41"
Sunlit
Object was in daylight at epoch
Visualization orbit readout
Latitude
-29.14421°
Longitude
-88.98479°
Altitude
1,411.875 km
Speed
7.156 km/s
Apparent Right ascension
22h 38m 41s
Apparent Declination
-34° 07' 17"
Sunlit
Object is in daylight
Visualization observer readout
Local Sidereal Time
09:58:45
Azimuth
302.932° NW
Elevation
-80.158°
Doppler factor
1
Orbital elements
Apogee altitude
1,410.323 km
Perigee altitude
1,396.585 km
Semi-major axis
7,781.591 km
Eccentricity
0.00088
Inclination
82.5747°
RAAN
163.0052°
Arg. of periapsis
166.9712°
True anomaly
Unknown
Mean anomaly
306.8561°
Eccentric anomaly
Unknown
Mean motion
3.16184 °/min
Orbital period
113.86 mins
BSTAR
0.00015294
Loading maneuver chart data...
Loading SW <> Apogee altitude chart data...
Loading historical data...
Loading historical data...
Loading historical data...
Loading historical data...
Loading historical data...
Loading historical data...
Loading historical data...

COSMOS 2093 Visibility forecast

Observer location: undefined°, undefined°

Span
Click to sort rows by Start time (UTC) header in descending order
Start Az.
Max El. time (UTC)
Max El. Az.
Max El.
End time (UTC)
End Az.
15 mins2025-07-05 22:55:38.412Z175.545° S2025-07-05 23:02:38.412Z119.505° SE43.491°2025-07-05 23:10:38.412Z12.03° NNE
11 mins2025-07-06 00:53:38.412Z250.515° W2025-07-06 00:58:38.412Z292.308° WNW21.166°2025-07-06 01:04:38.412Z340.885° N
12 mins2025-07-06 08:57:38.412Z18.319° NNE2025-07-06 09:03:38.412Z73.234° E25.621°2025-07-06 09:09:38.412Z123.968° SE
14 mins2025-07-06 10:51:38.412Z342.749° N2025-07-06 10:58:38.412Z268.109° W40.374°2025-07-06 11:05:38.412Z194.754° SSW
11 mins2025-07-06 21:45:38.412Z130.11° SE2025-07-06 21:50:38.412Z86.179° E25.028°2025-07-06 21:56:38.412Z33.564° NE
|